KEYE

Details ICAO KEYE
Name Eagle Creek Airpark
Region United States
Timezone America/Indiana/Indianapolis (UTC-4.0)
Plans Departing 17
Arriving 12
Stats Elevation 823 ft / 251 m (AMSL)
Location 39.830738° -86.294377°
Runways 1
Magnetic Variation 4.673° W
Sunrise 2018-05-25 10:24:03 UTC / 2018-05-25 06:24:03 Local
Sunset 2018-05-26 01:03:06 UTC / 2018-05-25 21:03:06 Local
Advertisement - Login to hide

Runways

ID Width Length Bearing (true) Bearing (mag) Surface Threshold Offset Overrun Length
03 75 ft / 23 m 4,204 ft / 1,281 m 25.45° 30.12° Asphalt 0 ft / 0 m 0 ft / 0 m
21 75 ft / 23 m 4,204 ft / 1,281 m 205.45° 210.12° Asphalt 0 ft / 0 m 0 ft / 0 m

Approach Navaids

Runway Type Ident Frequency Range Bearing (true) Bearing (mag) Slope Elevation
21 Localiser IEYE 111.50 MHz 18 nm / 33 km 205.45° 210.12° - 823 ft / 251 m (AMSL)

Map

Weather


0- 5 10 15 20 25 30 35+ Temperature / ° C

Clouds and Precipitation
Forecast for 2018-05-25 18:00 UTC. Updated 3 hours ago

Ground ~20,000 ft ~40,000 ft Winds

METAR

KEYE 251953Z AUTO 00000KT 10SM CLR 31/12 A2989 RMK AO2 SLP114 T03060122

TAF

Not found

Frequencies

Recorded 121.57 MHz ASOS
Unicom 122.80 MHz CTAF/UNICOM
Approach 119.05 MHz INDIANAPOLIS APP/DEP
Recorded 126.42 MHz ASOS
Clearance 128.60 MHz CLNC DEL
Warning: Do not use this data for real-world aviation or navigation. No guarantee of current accuracy is given.